Arlington, TX

7:19 PM CDT on May 20, 2018 (GMT -0500)
Arlington Municipal

Weather History for KGKY - October, 2012

Change the Weather History Date:

Friday, October 26, 2012

  Actual Average (KRBD) Record (KRBD)
Temperature  
Mean Temperature 52 °F -  
Max Temperature 55 °F 72 °F 89 °F (2014)
Min Temperature 48 °F 54 °F 39 °F (1997)
Degree Days  
Heating Degree Days 14    
Growing Degree Days 2 (Base 50)    
Moisture  
Dew Point 37 °F    
Average Humidity 59    
Maximum Humidity 77    
Minimum Humidity 47    
Precipitation  
Precipitation 0.07 in - - ()
Sea Level Pressure  
Sea Level Pressure 30.22 in    
Wind  
Wind Speed 18 mph (NNW)    
Max Wind Speed 24 mph    
Max Gust Speed 29 mph    
Visibility 10 miles    
Events Rain    
Averages and records for this station are not official NWS values.
T = Trace of Precipitation, MM = Missing Value Source: NWS Daily Summary

Daily Weather History Graph

Daily Weather History Graph

Search for Another Location

Airport or City:

Astronomy

Oct. 26, 2012 Rise Set
Actual Time 7:41 AM CDT 6:42 PM CDT
Civil Twilight 7:16 AM CDT 7:07 PM CDT
Nautical Twilight 6:47 AM CDT 7:36 PM CDT
Astronomical Twilight 6:18 AM CDT 8:05 PM CDT
Moon 4:52 PM CDT (10/26) 4:47 AM CDT (10/26)
Length of Visible Light 11h 51m
Length of Day
11h 01m
Waxing Gibbous, 91% of the Moon is Illuminated
Oct 26
Waxing Gibbous
Oct 29
Full
Nov 6
Last Quarter
Nov 13
New
Nov 20
First Quarter

Hourly Weather History & Observations

Time (CDT) Temp. Dew Point Humidity Pressure Visibility Wind Dir Wind Speed Gust Speed Precip Events Conditions
12:53 AM 55.0 °F 39.9 °F 57% 30.07 in 10.0 mi North 17.3 mph 28.8 mph N/A   Overcast
1:53 AM 54.0 °F 39.0 °F 57% 30.10 in 10.0 mi North 18.4 mph 27.6 mph N/A   Overcast
2:53 AM 52.0 °F 39.9 °F 63% 30.10 in 10.0 mi North 24.2 mph 28.8 mph 0.00 in Rain Light Rain
3:53 AM 50.0 °F 43.0 °F 77% 30.11 in 10.0 mi NNW 16.1 mph - 0.06 in Rain Light Rain
4:53 AM 50.0 °F 39.9 °F 68% 30.12 in 10.0 mi North 15.0 mph - 0.01 in   Overcast
5:53 AM 50.0 °F 39.9 °F 68% 30.14 in 10.0 mi North 16.1 mph 21.9 mph N/A   Overcast
6:53 AM 50.0 °F 39.0 °F 66% 30.16 in 10.0 mi North 18.4 mph - N/A   Overcast
7:46 AM 48.2 °F 39.2 °F 71% 30.20 in 10.0 mi NNW 15.0 mph 24.2 mph N/A   Overcast
8:53 AM 48.9 °F 39.0 °F 69% 30.21 in 10.0 mi NNW 18.4 mph 24.2 mph N/A   Overcast
9:53 AM 48.9 °F 39.9 °F 71% 30.24 in 10.0 mi North 18.4 mph - N/A   Overcast
10:53 AM 50.0 °F 39.0 °F 66% 30.25 in 10.0 mi NNW 21.9 mph 27.6 mph N/A   Overcast
11:53 AM 50.0 °F 39.0 °F 66% 30.27 in 10.0 mi NNW 18.4 mph - N/A   Overcast
12:53 PM 50.0 °F 39.0 °F 66% 30.28 in 10.0 mi NNW 19.6 mph 24.2 mph N/A   Overcast
1:53 PM 51.1 °F 37.9 °F 61% 30.25 in 10.0 mi NW 18.4 mph - N/A   Overcast
2:40 PM 51.8 °F 37.4 °F 58% 30.25 in 10.0 mi North 20.7 mph 26.5 mph N/A   Mostly Cloudy
2:53 PM 53.1 °F 37.0 °F 55% 30.25 in 10.0 mi North 13.8 mph - N/A   Mostly Cloudy
3:53 PM 55.9 °F 36.0 °F 47% 30.23 in 10.0 mi NNW 23.0 mph 26.5 mph N/A   Clear
4:11 PM 55.4 °F 35.6 °F 47% 30.23 in 2.5 mi North 19.6 mph 25.3 mph N/A   Haze
4:20 PM 55.4 °F 35.6 °F 47% 30.23 in 10.0 mi NNW 19.6 mph 28.8 mph N/A   Clear
4:53 PM 55.0 °F 35.1 °F 47% 30.22 in 10.0 mi North 18.4 mph 27.6 mph N/A   Clear
5:53 PM 53.1 °F 33.1 °F 47% 30.24 in 10.0 mi North 19.6 mph 26.5 mph N/A   Clear
6:53 PM 52.0 °F 33.1 °F 49% 30.25 in 10.0 mi North 15.0 mph 20.7 mph N/A   Clear
7:53 PM 50.0 °F 32.0 °F 50% 30.29 in 10.0 mi NNW 10.4 mph - N/A   Clear
8:53 PM 48.9 °F 32.0 °F 52% 30.30 in 10.0 mi NNW 9.2 mph - N/A   Clear
9:53 PM 48.0 °F 33.1 °F 56% 30.31 in 10.0 mi NNW 9.2 mph - N/A   Clear
11:53 PM 48.0 °F 30.9 °F 52% 30.31 in 10.0 mi North 8.1 mph - N/A   Clear